Regional Weather Roundup
Issued by NWS

Home | Current Version | Previous Version | Graphics & Text | Print | Product List | Glossary On
Versions: 1 2 3 4 5 6 7 8 9 10 11 12 13 14 15 16 17 18 19 20 21 22 23 24 25 26 27 28 29 30 31 32 33 34 35 36 37 38 39 40 41 42 43 44 45 46 47 48 49 50
000
ASUS45 KSLC 272310
RWRUT

UTAH REGIONAL WEATHER ROUNDUP
NATIONAL WEATHER SERVICE SALT LAKE CITY UT
400 PM MST FRI FEB 27 2015

UTZ001>011-023>025-280000-

NORTHERN UTAH

CITY           SKY/WX    TMP DP  RH WIND       PRES   REMARKS
BRIGHAM CITY   CLOUDY    42  26  53 NE6       29.71F
HILL AFB       PTSUNNY   41  22  48 S10       29.70F
LOGAN          CLOUDY    38  28  67 CALM      29.72F
OGDEN          CLOUDY    42  23  46 E7        29.70F
PROVO AIRPORT  PTSUNNY   45  27  49 SE5       29.72F
SALT LAKE CITY PTSUNNY   41  27  57 E8        29.71F
VERNAL         MOSUNNY   38  15  39 W6        29.74F WCI  33
WENDOVER       PTSUNNY   46  25  42 E8        29.67F
HEBER CITY     CLOUDY    37  21  52 N7        29.69S WCI  32
WEST JORDAN    SUNNY     43  30  61 S9        29.71F

$$

UTZ012>022-026-027-280000-

SOUTHERN/CENTRAL UTAH

CITY           SKY/WX    TMP DP  RH WIND       PRES   REMARKS
BLANDING       CLOUDY    32  28  83 SE6       29.84S WCI  26
BRYCE CANYON   SNOW      27  24  89 NE6       29.69F VSB 1/4 WCI  20
CEDAR CITY     CLOUDY    41  25  53 SW7       29.66F
DELTA          CLOUDY    46  15  29 CALM      29.68S
HANKSVILLE     MOSUNNY   45  28  53 S10       29.73S
MILFORD        PTSUNNY   47  10  22 W5        29.65F
MOAB/CYNLANDS  SUNNY     44  18  35 W5        29.69F
PRICE          MOSUNNY   38  17  42 SW8       29.70S WCI  32
ST GEORGE      PTCLDY    57  25  28 CALM      29.66F
KANAB          CLOUDY    43  32  65 S9        29.74S

$$

REGIONAL REPORTS     COLORADO/ARIZONA

CITY           SKY/WX    TMP DP  RH WIND       PRES   REMARKS
CRAIG, CO        N/A     35   9  33 MISG      29.75F
GRAND JUNCTION MOSUNNY   39  23  52 S9        29.73F WCI  33
RIFLE          MOSUNNY   39  22  50 SE12      29.72F WCI  32
MONTROSE       PTSUNNY   34  25  69 N5        29.77S WCI  30
CORTEZ         LGT SNOW  32  29  88 SW3       29.77S FOG
PAGE, AZ       LGT RAIN  42  34  73 E3        29.72F
GRAND CANYON   CLOUDY    39  30  70 NW6       29.72F WCI  35
KINGMAN        SUNNY     61  24  24 S18G26    29.65F
FLAGSTAFF      CLOUDY    40  24  53 SW12G25   29.72F WCI  33

$$

REGIONAL REPORTS    NEVADA/IDAHO/WYOMING

CITY           SKY/WX    TMP DP  RH WIND       PRES   REMARKS
LAS VEGAS, NV  MOSUNNY   65  22  19 SE8       29.58F
ELY            CLOUDY    41  15  35 SE14      29.62F
ELKO           CLOUDY    40  29  64 W13       29.63F WCI  32
POCATELLO, ID  PTSUNNY   39  26  59 N5        29.72F
BURLEY         MOSUNNY   43  27  53 E10       29.67F
EVANSTON, WY   LGT SNOW  28  22  78 W7        29.68F WCI  21
ROCK SPRINGS   SUNNY     30  12  47 S8        29.71F WCI  22
KEMMERER       PTSUNNY   28  19  69 S3        29.69S

$$



USA.gov is the U.S. government's official web portal to all federal, state and local government web resources and services.